Weather History for Tanana, AK

Change the Weather History Date:

Wednesday, September 11, 2013

  Actual Average Record
Temperature  
Mean Temperature 44 °F -  
Max Temperature 53 °F 55 °F 72 °F (1965)
Min Temperature 35 °F 36 °F 20 °F (1952)
Degree Days  
Heating Degree Days 22    
Moisture  
Dew Point 44 °F    
Average Humidity 92    
Maximum Humidity 100    
Minimum Humidity 83    
Precipitation  
Precipitation 0.02 in - - ()
Sea Level Pressure  
Sea Level Pressure 29.70 in    
Wind  
Wind Speed 2 mph (WNW)    
Max Wind Speed 9 mph    
Max Gust Speed -    
Visibility 9 miles    
Events Rain    
Averages and records for this station are not official NWS values.
T = Trace of Precipitation, MM = Missing Value Source: NWS Daily Summary

Daily Weather History Graph

Daily Weather History Graph

Search for Another Location

Airport:

Trip Planner

Search our weather history database for the weather conditions in past years. The results will help you decide how hot, cold, wet, or windy it might be!

Date:

Astronomy

Sep. 11, 2013 Rise Set
Actual Time 7:19 AM AKDT 8:48 PM AKDT
Civil Twilight 6:27 AM AKDT 9:40 PM AKDT
Nautical Twilight 5:19 AM AKDT 10:47 PM AKDT
Astronomical Twilight 3:46 AM AKDT 12:16 AM AKDT
Moon 4:39 PM AKDT (9/11) 10:12 PM AKDT (9/11)
Length of Visible Light 15h 13m
Length of Day
13h 29m
Waxing Crescent, 40% of the Moon is Illuminated
Sep 11
Waxing Crescent
Sep 12
First Quarter
Sep 19
Full
Sep 26
Last Quarter
Oct 4
New

Hourly Weather History & Observations

Time (AKDT) Temp. Windchill Dew Point Humidity Pressure Visibility Wind Dir Wind Speed Gust Speed Precip Events Conditions
12:52 AM 43.0 °F - 42.1 °F 97% 29.70 in 10.0 mi Calm Calm - N/A   Clear
1:52 AM 43.0 °F 39.5 °F 42.1 °F 97% 29.70 in 10.0 mi NE 5.8 mph - N/A   Clear
2:52 AM 39.0 °F - 37.9 °F 96% 29.71 in 10.0 mi Calm Calm - N/A   Partly Cloudy
3:52 AM 39.9 °F - 39.0 °F 97% 29.69 in 10.0 mi Calm Calm - N/A   Mostly Cloudy
4:52 AM 39.9 °F 37.8 °F 39.0 °F 97% 29.70 in 10.0 mi North 3.5 mph - N/A   Mostly Cloudy
5:13 AM 39.2 °F 37.0 °F 37.4 °F 93% 29.69 in 10.0 mi NW 3.5 mph - N/A   Mostly Cloudy
5:52 AM 37.0 °F 34.5 °F 36.0 °F 96% 29.69 in 10.0 mi North 3.5 mph - N/A   Scattered Clouds
6:52 AM 35.1 °F 32.2 °F 34.0 °F 96% 29.68 in 10.0 mi North 3.5 mph - N/A   Partly Cloudy
7:52 AM 35.1 °F 30.1 °F 34.0 °F 96% 29.67 in 10.0 mi NNE 5.8 mph - N/A   Scattered Clouds
8:52 AM 39.9 °F - 39.0 °F 97% 29.66 in 10.0 mi Calm Calm - N/A   Scattered Clouds
9:52 AM 41.0 °F - 39.9 °F 96% 29.65 in 10.0 mi Calm Calm - N/A   Overcast
10:07 AM 42.8 °F - 41.0 °F 93% 29.64 in 1.8 mi Calm Calm - N/A   Overcast
10:20 AM 42.8 °F - 42.8 °F 100% 29.64 in 5.0 mi Calm Calm - N/A   Overcast
10:52 AM 45.0 °F - 43.0 °F 93% 29.64 in 5.0 mi Calm Calm - N/A   Overcast
11:52 AM 45.0 °F - 44.1 °F 97% 29.63 in 10.0 mi Calm Calm - N/A   Mostly Cloudy
12:52 PM 46.9 °F - 44.1 °F 90% 29.64 in 10.0 mi Calm Calm - N/A   Mostly Cloudy
1:52 PM 48.0 °F - 46.0 °F 93% 29.65 in 10.0 mi Calm Calm - N/A   Overcast
2:52 PM 48.9 °F - 46.9 °F 93% 29.66 in 10.0 mi Calm Calm - 0.00 in Rain Light Rain
3:52 PM 50.0 °F - 46.9 °F 89% 29.67 in 10.0 mi Calm Calm - 0.01 in Rain Light Rain
4:52 PM 51.1 °F - 48.9 °F 92% 29.68 in 9.0 mi Calm Calm - 0.00 in Rain Light Rain
5:08 PM 51.8 °F - 48.2 °F 88% 29.67 in 6.0 mi Calm Calm - 0.00 in   Mostly Cloudy
5:21 PM 51.8 °F - 48.2 °F 88% 29.67 in 9.0 mi Calm Calm - 0.00 in   Overcast
5:33 PM 51.8 °F - 48.2 °F 88% 29.67 in 10.0 mi Calm Calm - 0.00 in Rain Light Rain
5:52 PM 52.0 °F - 50.0 °F 93% 29.69 in 8.0 mi Calm Calm - 0.01 in Rain Light Rain
6:52 PM 52.0 °F - 48.9 °F 89% 29.71 in 10.0 mi West 4.6 mph - 0.00 in   Overcast
7:15 PM 51.8 °F - 50.0 °F 94% 29.70 in 10.0 mi West 3.5 mph - N/A   Overcast
7:52 PM 52.0 °F - 48.0 °F 86% 29.73 in 10.0 mi Variable 4.6 mph - N/A   Overcast
8:52 PM 51.1 °F - 48.0 °F 89% 29.75 in 10.0 mi SW 6.9 mph - N/A   Overcast
9:52 PM 50.0 °F - 46.0 °F 86% 29.78 in 10.0 mi SW 8.1 mph - 0.00 in   Overcast
10:23 PM 48.2 °F - 44.6 °F 87% 29.78 in 10.0 mi SW 9.2 mph - N/A   Overcast
10:52 PM 48.9 °F - 45.0 °F 86% 29.80 in 10.0 mi SW 8.1 mph - N/A   Overcast
11:20 PM 48.2 °F - 44.6 °F 87% 29.81 in 10.0 mi SW 6.9 mph - N/A   Overcast
11:52 PM 48.0 °F - 43.0 °F 83% 29.83 in 10.0 mi SW 6.9 mph - N/A   Overcast